PulseSat

PulseSat

MOLNIYA 1-69

Last updated on Dec. 8, 2018, 12:08 a.m. UTC

1 17078U 86089A   18341.44112161 -.00000149  00000-0  31402-1 0  9997
2 17078  64.4501 316.6002 6925229 270.2561 345.4185  2.01016596234987
UTC
Height (km)
Latitude
Longitude
Inclination
Orbital Period

Next 30 passes for location: Hong Kong

Rise time Rise Azimuth (degrees) Set time Set Azimuth (degrees) Duration Max altitude (degrees)

No matching passes for this satellites

PulseSat

PulseSat is the new satellites software and hardware trackering solution by Pulsely.
Satellite Two Line Element Set source: US Air Force Space Command

Download PulseSat for iOS
© 2017 Pulsely Limited